Year,Month,Day,Hour,Minute,Value (Times are PST for temperature in C)
2009,07,28,00,00,23.00
2009,07,28,00,01,23.00
2009,07,28,00,02,23.00
2009,07,28,00,03,23.00
2009,07,28,00,04,22.90
2009,07,28,00,05,22.90
2009,07,28,00,06,22.90
2009,07,28,00,07,22.90
2009,07,28,00,08,22.90
2009,07,28,00,09,22.90
2009,07,28,00,10,22.90
2009,07,28,00,11,22.90
2009,07,28,00,12,22.80
2009,07,28,00,13,22.80
2009,07,28,00,44,22.80
2009,07,28,00,45,22.80
2009,07,28,00,46,22.80
2009,07,28,00,47,22.80
2009,07,28,00,48,22.80
2009,07,28,00,49,22.80
2009,07,28,00,50,22.70
2009,07,28,00,51,22.70
2009,07,28,00,52,22.70
2009,07,28,00,53,22.70
2009,07,28,00,54,22.60
2009,07,28,00,55,22.60
2009,07,28,00,56,22.60
2009,07,28,00,57,22.60
2009,07,28,00,58,22.60
2009,07,28,00,59,22.50
2009,07,28,01,00,22.50
2009,07,28,01,01,22.40
2009,07,28,01,02,22.40
2009,07,28,01,03,22.40
2009,07,28,01,04,22.40
2009,07,28,01,05,22.30
2009,07,28,01,06,22.30
2009,07,28,01,07,22.30
2009,07,28,01,08,22.30
2009,07,28,01,09,22.30
2009,07,28,01,10,22.30
2009,07,28,01,11,22.30
2009,07,28,01,12,22.20
2009,07,28,01,13,22.20
2009,07,28,01,14,22.20
2009,07,28,01,15,22.20
2009,07,28,01,16,22.20
2009,07,28,01,17,22.20
2009,07,28,01,18,22.20
2009,07,28,01,19,22.20
2009,07,28,01,20,22.10
2009,07,28,01,21,22.10
2009,07,28,01,22,22.10
2009,07,28,01,23,22.10
2009,07,28,01,24,22.10
2009,07,28,01,25,22.10
2009,07,28,01,26,22.10
2009,07,28,01,27,22.00
2009,07,28,01,28,22.00
2009,07,28,01,29,22.00
2009,07,28,01,30,22.00
2009,07,28,01,31,22.00
2009,07,28,01,32,21.90
2009,07,28,01,33,21.90
2009,07,28,01,34,21.90
2009,07,28,01,35,21.90
2009,07,28,01,36,21.90
2009,07,28,01,37,21.90
2009,07,28,01,38,21.90
2009,07,28,01,39,21.90
2009,07,28,01,40,21.90
2009,07,28,01,41,21.80
2009,07,28,01,42,21.80
2009,07,28,01,43,21.80
2009,07,28,01,44,21.80
2009,07,28,01,45,21.80
2009,07,28,01,46,21.80
2009,07,28,01,47,21.80
2009,07,28,01,48,21.80
2009,07,28,01,49,21.70
2009,07,28,01,50,21.70
2009,07,28,01,51,21.70
2009,07,28,01,52,21.70
2009,07,28,01,53,21.70
2009,07,28,01,54,21.70
2009,07,28,01,55,21.70
2009,07,28,01,56,21.70
2009,07,28,01,57,21.70
2009,07,28,01,58,21.70
2009,07,28,01,59,21.60
2009,07,28,02,00,21.60
2009,07,28,02,01,21.60
2009,07,28,02,02,21.60
2009,07,28,02,03,21.60
2009,07,28,02,04,21.60
2009,07,28,02,05,21.60
2009,07,28,02,06,21.50
2009,07,28,02,07,21.50
2009,07,28,02,08,21.50
2009,07,28,02,09,21.50
2009,07,28,02,10,21.50
2009,07,28,02,11,21.40
2009,07,28,02,12,21.40
2009,07,28,02,13,21.40
2009,07,28,02,14,21.40
2009,07,28,02,15,21.40
2009,07,28,02,16,21.40
2009,07,28,02,17,21.30
2009,07,28,02,18,21.30
2009,07,28,02,19,21.30
2009,07,28,02,20,21.30
2009,07,28,02,21,21.30
2009,07,28,02,22,21.30
2009,07,28,02,23,21.30
2009,07,28,02,24,21.20
2009,07,28,02,25,21.20
2009,07,28,02,26,21.20
2009,07,28,02,27,21.20
2009,07,28,02,28,21.10
2009,07,28,02,29,21.10
2009,07,28,02,30,21.10
2009,07,28,02,31,21.10
2009,07,28,02,32,21.10
2009,07,28,02,33,21.00
2009,07,28,02,34,21.00
2009,07,28,02,35,21.00
2009,07,28,02,36,20.90
2009,07,28,02,37,20.90
2009,07,28,02,38,20.90
2009,07,28,02,39,20.90
2009,07,28,02,40,20.90
2009,07,28,02,41,20.80
2009,07,28,02,42,20.80
2009,07,28,02,43,20.80
2009,07,28,02,44,20.80
2009,07,28,02,45,20.70
2009,07,28,02,46,20.70
2009,07,28,02,47,20.70
2009,07,28,02,48,20.70
2009,07,28,02,49,20.70
2009,07,28,02,50,20.70
2009,07,28,02,51,20.60
2009,07,28,02,52,20.60
2009,07,28,02,53,20.60
2009,07,28,02,54,20.60
2009,07,28,02,55,20.60
2009,07,28,02,56,20.60
2009,07,28,02,57,20.60
2009,07,28,02,58,20.60
2009,07,28,02,59,20.60
2009,07,28,03,00,20.60
2009,07,28,03,01,20.60
2009,07,28,03,02,20.60
2009,07,28,03,03,20.60
2009,07,28,03,04,20.60
2009,07,28,03,05,20.60
2009,07,28,03,06,20.60
2009,07,28,03,07,20.60
2009,07,28,03,08,20.60
2009,07,28,03,09,20.60
2009,07,28,03,10,20.60
2009,07,28,03,11,20.60
2009,07,28,03,12,20.60
2009,07,28,03,13,20.60
2009,07,28,03,14,20.60
2009,07,28,03,15,20.70
2009,07,28,03,16,20.70
2009,07,28,03,17,20.70
2009,07,28,03,18,20.70
2009,07,28,03,19,20.70
2009,07,28,03,20,20.70
2009,07,28,03,21,20.70
2009,07,28,03,22,20.60
2009,07,28,03,23,20.60
2009,07,28,03,24,20.60
2009,07,28,03,25,20.60
2009,07,28,03,26,20.60
2009,07,28,03,27,20.60
2009,07,28,03,28,20.60
2009,07,28,03,29,20.50
2009,07,28,03,30,20.50
2009,07,28,03,31,20.50
2009,07,28,03,32,20.50
2009,07,28,03,33,20.50
2009,07,28,03,34,20.40
2009,07,28,03,35,20.40
2009,07,28,03,36,20.40
2009,07,28,03,37,20.40
2009,07,28,03,38,20.40
2009,07,28,03,39,20.40
2009,07,28,03,40,20.40
2009,07,28,03,41,20.40
2009,07,28,03,42,20.30
2009,07,28,03,43,20.30
2009,07,28,03,44,20.30
2009,07,28,03,45,20.30
2009,07,28,03,46,20.30
2009,07,28,03,47,20.30
2009,07,28,03,48,20.30
2009,07,28,03,49,20.20
2009,07,28,03,50,20.20
2009,07,28,03,51,20.20
2009,07,28,03,52,20.20
2009,07,28,03,53,20.20
2009,07,28,03,54,20.20
2009,07,28,03,55,20.10
2009,07,28,03,56,20.10
2009,07,28,03,57,20.10
2009,07,28,03,58,20.10
2009,07,28,03,59,20.10
2009,07,28,04,00,20.10
2009,07,28,04,01,20.10
2009,07,28,04,02,20.10
2009,07,28,04,03,20.10
2009,07,28,04,04,20.00
2009,07,28,04,05,20.00
2009,07,28,04,06,20.00
2009,07,28,04,07,20.00
2009,07,28,04,08,19.90
2009,07,28,04,09,19.90
2009,07,28,04,10,19.90
2009,07,28,04,11,19.90
2009,07,28,04,12,19.90
2009,07,28,04,13,19.90
2009,07,28,04,14,19.90
2009,07,28,04,15,19.80
2009,07,28,04,16,19.80
2009,07,28,04,17,19.80
2009,07,28,04,18,19.80
2009,07,28,04,19,19.80
2009,07,28,04,20,19.80
2009,07,28,04,21,19.80
2009,07,28,04,22,19.80
2009,07,28,04,23,19.80
2009,07,28,04,24,19.80
2009,07,28,04,25,19.80
2009,07,28,04,26,19.80
2009,07,28,04,27,19.80
2009,07,28,04,28,19.80
2009,07,28,04,29,19.80
2009,07,28,04,30,19.80
2009,07,28,04,31,19.80
2009,07,28,04,32,19.80
2009,07,28,04,33,19.70
2009,07,28,04,34,19.80
2009,07,28,04,35,19.70
2009,07,28,04,36,19.70
2009,07,28,04,37,19.80
2009,07,28,04,38,19.70
2009,07,28,04,39,19.70
2009,07,28,04,40,19.70
2009,07,28,04,41,19.70
2009,07,28,04,42,19.70
2009,07,28,04,43,19.70
2009,07,28,04,44,19.70
2009,07,28,04,45,19.70
2009,07,28,04,46,19.70
2009,07,28,04,47,19.70
2009,07,28,04,48,19.70
2009,07,28,04,49,19.70
2009,07,28,04,50,19.60
2009,07,28,04,51,19.60
2009,07,28,04,52,19.60
2009,07,28,04,53,19.60
2009,07,28,04,54,19.60
2009,07,28,04,55,19.60
2009,07,28,04,56,19.60
2009,07,28,04,57,19.60
2009,07,28,04,58,19.60
2009,07,28,04,59,19.60
2009,07,28,05,00,19.60
2009,07,28,05,01,19.60
2009,07,28,05,02,19.50
2009,07,28,05,03,19.50
2009,07,28,05,04,19.50
2009,07,28,05,05,19.50
2009,07,28,05,06,19.50
2009,07,28,05,07,19.50
2009,07,28,05,08,19.40
2009,07,28,05,09,19.40
2009,07,28,05,10,19.40
2009,07,28,05,11,19.40
2009,07,28,05,12,19.40
2009,07,28,05,13,19.40
2009,07,28,05,14,19.30
2009,07,28,05,15,19.30
2009,07,28,05,16,19.30
2009,07,28,05,17,19.30
2009,07,28,05,18,19.30
2009,07,28,05,19,19.30
2009,07,28,05,20,19.20
2009,07,28,05,21,19.20
2009,07,28,05,22,19.20
2009,07,28,05,23,19.20
2009,07,28,05,24,19.20
2009,07,28,05,25,19.10
2009,07,28,05,26,19.10
2009,07,28,05,27,19.10
2009,07,28,05,28,19.10
2009,07,28,05,29,19.00
2009,07,28,05,30,19.00
2009,07,28,05,31,18.90
2009,07,28,05,32,18.90
2009,07,28,05,33,18.90
2009,07,28,05,34,18.80
2009,07,28,05,35,18.80
2009,07,28,05,36,18.80
2009,07,28,05,37,18.80
2009,07,28,05,38,18.70
2009,07,28,05,39,18.70
2009,07,28,05,40,18.70
2009,07,28,05,41,18.70
2009,07,28,05,42,18.70
2009,07,28,05,43,18.60
2009,07,28,05,44,18.60
2009,07,28,05,45,18.60
2009,07,28,05,46,18.60
2009,07,28,05,47,18.60
2009,07,28,05,48,18.60
2009,07,28,05,49,18.60
2009,07,28,05,50,18.60
2009,07,28,05,51,18.50
2009,07,28,05,52,18.60
2009,07,28,05,53,18.60
2009,07,28,05,54,18.60
2009,07,28,05,55,18.60
2009,07,28,05,56,18.60
2009,07,28,05,57,18.60
2009,07,28,05,58,18.60
2009,07,28,05,59,18.60
2009,07,28,06,00,18.60
2009,07,28,06,01,18.60
2009,07,28,06,02,18.60
2009,07,28,06,03,18.60
2009,07,28,06,04,18.60
2009,07,28,06,05,18.60
2009,07,28,06,06,18.60
2009,07,28,06,07,18.60
2009,07,28,06,08,18.60
2009,07,28,06,09,18.60
2009,07,28,06,10,18.60
2009,07,28,06,11,18.60
2009,07,28,06,12,18.60
2009,07,28,06,13,18.60
2009,07,28,06,14,18.60
2009,07,28,06,15,18.60
2009,07,28,06,16,18.60
2009,07,28,06,17,18.60
2009,07,28,06,18,18.60
2009,07,28,06,19,18.60
2009,07,28,06,20,18.60
2009,07,28,06,21,18.60
2009,07,28,06,22,18.60
2009,07,28,06,23,18.60
2009,07,28,06,24,18.60
2009,07,28,06,25,18.60
2009,07,28,06,26,18.60
2009,07,28,06,27,18.60
2009,07,28,06,28,18.60
2009,07,28,06,29,18.60
2009,07,28,06,30,18.70
2009,07,28,06,31,18.70
2009,07,28,06,32,18.70
2009,07,28,06,33,18.70
2009,07,28,06,34,18.70
2009,07,28,06,35,18.70
2009,07,28,06,36,18.70
2009,07,28,06,37,18.70
2009,07,28,06,38,18.70
2009,07,28,06,39,18.70
2009,07,28,06,40,18.80
2009,07,28,06,41,18.80
2009,07,28,06,42,18.80
2009,07,28,06,43,18.80
2009,07,28,06,44,18.80
2009,07,28,06,45,18.80
2009,07,28,06,46,18.90
2009,07,28,06,47,18.90
2009,07,28,06,48,18.90
2009,07,28,06,49,18.90
2009,07,28,06,50,18.90
2009,07,28,06,51,19.00
2009,07,28,06,52,19.00
2009,07,28,06,53,19.00
2009,07,28,06,54,19.00
2009,07,28,06,55,19.10
2009,07,28,06,56,19.10
2009,07,28,06,57,19.10
2009,07,28,06,58,19.10
2009,07,28,06,59,19.10
2009,07,28,07,00,19.20
2009,07,28,07,01,19.20
2009,07,28,07,02,19.20
2009,07,28,07,03,19.20
2009,07,28,07,04,19.30
2009,07,28,07,05,19.30
2009,07,28,07,06,19.30
2009,07,28,07,07,19.30
2009,07,28,07,08,19.40
2009,07,28,07,09,19.40
2009,07,28,07,10,19.40
2009,07,28,07,11,19.50
2009,07,28,07,12,19.50
2009,07,28,07,13,19.50
2009,07,28,07,14,19.60
2009,07,28,07,15,19.60
2009,07,28,07,16,19.60
2009,07,28,07,17,19.70
2009,07,28,07,18,19.70
2009,07,28,07,19,19.80
2009,07,28,07,20,19.80
2009,07,28,07,21,19.80
2009,07,28,07,22,19.90
2009,07,28,07,23,19.90
2009,07,28,07,24,19.90
2009,07,28,07,25,20.00
2009,07,28,07,26,20.00
2009,07,28,07,27,20.10
2009,07,28,07,28,20.10
2009,07,28,07,29,20.10
2009,07,28,07,30,20.20
2009,07,28,07,31,20.20
2009,07,28,07,32,20.20
2009,07,28,07,33,20.30
2009,07,28,07,34,20.30
2009,07,28,07,35,20.30
2009,07,28,07,36,20.40
2009,07,28,07,37,20.40
2009,07,28,07,38,20.50
2009,07,28,07,39,20.50
2009,07,28,07,40,20.60
2009,07,28,07,41,20.60
2009,07,28,07,42,20.70
2009,07,28,07,43,20.70
2009,07,28,07,44,20.80
2009,07,28,07,45,20.80
2009,07,28,07,46,20.80
2009,07,28,07,47,20.90
2009,07,28,07,48,21.00
2009,07,28,07,49,21.00
2009,07,28,07,50,21.00
2009,07,28,07,51,21.10
2009,07,28,07,52,21.10
2009,07,28,07,53,21.20
2009,07,28,07,54,21.20
2009,07,28,07,55,21.30
2009,07,28,07,56,21.30
2009,07,28,07,57,21.40
2009,07,28,07,58,21.40
2009,07,28,07,59,21.50
2009,07,28,08,00,21.60
2009,07,28,08,01,21.60
2009,07,28,08,02,21.70
2009,07,28,08,03,21.80
2009,07,28,08,04,21.80
2009,07,28,08,05,21.90
2009,07,28,08,06,21.90
2009,07,28,08,07,22.00
2009,07,28,08,08,22.10
2009,07,28,08,09,22.20
2009,07,28,08,10,22.30
2009,07,28,08,11,22.40
2009,07,28,08,12,22.40
2009,07,28,08,13,22.40
2009,07,28,08,14,22.50
2009,07,28,08,15,22.50
2009,07,28,08,16,22.60
2009,07,28,08,17,22.60
2009,07,28,08,18,22.60
2009,07,28,08,19,22.60
2009,07,28,08,20,22.70
2009,07,28,08,21,22.70
2009,07,28,08,22,22.70
2009,07,28,08,23,22.70
2009,07,28,08,24,22.70
2009,07,28,08,25,22.80
2009,07,28,08,26,22.80
2009,07,28,08,27,22.80
2009,07,28,08,28,22.90
2009,07,28,08,29,22.90
2009,07,28,08,30,22.90
2009,07,28,08,31,23.00
2009,07,28,08,32,23.00
2009,07,28,08,33,23.10
2009,07,28,08,34,23.10
2009,07,28,08,35,23.20
2009,07,28,08,36,23.30
2009,07,28,08,37,23.30
2009,07,28,08,38,23.40
2009,07,28,08,39,23.50
2009,07,28,08,40,23.60
2009,07,28,08,41,23.60
2009,07,28,08,42,23.70
2009,07,28,08,43,23.70
2009,07,28,08,44,23.80
2009,07,28,08,45,23.80
2009,07,28,08,46,23.80
2009,07,28,08,47,23.90
2009,07,28,08,48,23.90
2009,07,28,08,49,24.00
2009,07,28,08,50,24.00
2009,07,28,08,51,24.10
2009,07,28,08,52,24.10
2009,07,28,08,53,24.10
2009,07,28,08,54,24.20
2009,07,28,08,55,24.20
2009,07,28,08,56,24.30
2009,07,28,08,57,24.30
2009,07,28,08,58,24.40
2009,07,28,08,59,24.50
2009,07,28,09,00,24.60
2009,07,28,09,01,24.70
2009,07,28,09,02,24.70
2009,07,28,09,03,24.80
2009,07,28,09,04,24.90
2009,07,28,09,05,25.00
2009,07,28,09,06,25.10
2009,07,28,09,07,25.20
2009,07,28,09,08,25.30
2009,07,28,09,09,25.40
2009,07,28,09,10,25.50
2009,07,28,09,11,25.70
2009,07,28,09,12,25.70
2009,07,28,09,13,25.80
2009,07,28,09,14,25.90
2009,07,28,09,15,25.90
2009,07,28,09,16,26.00
2009,07,28,09,17,26.10
2009,07,28,09,18,26.20
2009,07,28,09,19,26.20
2009,07,28,09,20,26.30
2009,07,28,09,21,26.30
2009,07,28,09,22,26.20
2009,07,28,09,23,26.20
2009,07,28,09,24,26.20
2009,07,28,09,25,26.20
2009,07,28,09,26,26.30
2009,07,28,09,27,26.30
2009,07,28,09,28,26.30
2009,07,28,09,29,26.40
2009,07,28,09,30,26.40
2009,07,28,09,31,26.50
2009,07,28,09,32,26.50
2009,07,28,09,33,26.60
2009,07,28,09,34,26.60
2009,07,28,09,35,26.70
2009,07,28,09,36,26.70
2009,07,28,09,37,26.80
2009,07,28,09,38,26.80
2009,07,28,09,39,26.90
2009,07,28,09,40,26.90
2009,07,28,09,41,27.00
2009,07,28,09,42,27.10
2009,07,28,09,43,27.00
2009,07,28,09,44,27.00
2009,07,28,09,45,27.00
2009,07,28,09,46,27.00
2009,07,28,09,47,27.00
2009,07,28,09,48,27.00
2009,07,28,09,49,27.00
2009,07,28,09,50,27.00
2009,07,28,09,51,27.10
2009,07,28,09,52,27.10
2009,07,28,09,53,27.10
2009,07,28,09,54,27.10
2009,07,28,09,55,27.10
2009,07,28,09,56,27.10
2009,07,28,09,57,27.10
2009,07,28,09,58,27.10
2009,07,28,09,59,27.10
2009,07,28,10,00,27.10
2009,07,28,10,01,27.10
2009,07,28,10,02,27.10
2009,07,28,10,03,27.10
2009,07,28,10,04,27.10
2009,07,28,10,05,27.20
2009,07,28,10,06,27.20
2009,07,28,10,07,27.20
2009,07,28,10,08,27.20
2009,07,28,10,09,27.30
2009,07,28,10,10,27.30
2009,07,28,10,11,27.30
2009,07,28,10,12,27.40
2009,07,28,10,13,27.40
2009,07,28,10,14,27.40
2009,07,28,10,15,27.40
2009,07,28,10,16,27.40
2009,07,28,10,17,27.40
2009,07,28,10,18,27.40
2009,07,28,10,19,27.40
2009,07,28,10,20,27.50
2009,07,28,10,21,27.50
2009,07,28,10,22,27.60
2009,07,28,10,23,27.60
2009,07,28,10,24,27.60
2009,07,28,10,25,27.70
2009,07,28,10,26,27.70
2009,07,28,10,27,27.70
2009,07,28,10,28,27.80
2009,07,28,10,29,27.80
2009,07,28,10,30,27.90
2009,07,28,10,31,28.00
2009,07,28,10,32,28.00
2009,07,28,10,33,28.10
2009,07,28,10,34,28.10
2009,07,28,10,35,28.20
2009,07,28,10,36,28.30
2009,07,28,10,37,28.40
2009,07,28,10,38,28.50
2009,07,28,10,39,28.60
2009,07,28,10,40,28.80
2009,07,28,10,41,28.90
2009,07,28,10,42,29.10
2009,07,28,10,43,29.20
2009,07,28,10,44,29.30
2009,07,28,10,45,29.40
2009,07,28,10,46,29.40
2009,07,28,10,47,29.50
2009,07,28,10,48,29.60
2009,07,28,10,49,29.70
2009,07,28,10,50,29.70
2009,07,28,10,51,29.80
2009,07,28,10,52,29.80
2009,07,28,10,53,29.90
2009,07,28,10,54,29.90
2009,07,28,10,55,30.00
2009,07,28,10,56,30.00
2009,07,28,10,57,30.10
2009,07,28,10,58,30.10
2009,07,28,10,59,30.10
2009,07,28,11,00,30.10
2009,07,28,11,01,30.10
2009,07,28,11,02,30.00
2009,07,28,11,03,30.00
2009,07,28,11,04,30.00
2009,07,28,11,05,30.00
2009,07,28,11,06,30.00
2009,07,28,11,07,30.10
2009,07,28,11,08,30.10
2009,07,28,11,09,30.10
2009,07,28,11,10,30.20
2009,07,28,11,11,30.20
2009,07,28,11,12,30.20
2009,07,28,11,13,30.20
2009,07,28,11,14,30.20
2009,07,28,11,15,30.20
2009,07,28,11,16,30.20
2009,07,28,11,17,30.20
2009,07,28,11,18,30.20
2009,07,28,11,19,30.20
2009,07,28,11,20,30.20
2009,07,28,11,21,30.20
2009,07,28,11,22,30.30
2009,07,28,11,23,30.40
2009,07,28,11,24,30.50
2009,07,28,11,25,30.60
2009,07,28,11,26,30.60
2009,07,28,11,27,30.70
2009,07,28,11,28,30.80
2009,07,28,11,29,30.90
2009,07,28,11,30,31.00
2009,07,28,11,31,31.10
2009,07,28,11,32,31.10
2009,07,28,11,33,31.10
2009,07,28,11,34,31.20
2009,07,28,11,35,31.20
2009,07,28,11,36,31.20
2009,07,28,11,37,31.30
2009,07,28,11,38,31.30
2009,07,28,11,39,31.30
2009,07,28,11,40,31.30
2009,07,28,11,41,31.20
2009,07,28,11,42,31.20
2009,07,28,11,43,31.10
2009,07,28,11,44,31.10
2009,07,28,11,45,31.10
2009,07,28,11,46,31.00
2009,07,28,11,47,31.00
2009,07,28,11,48,31.00
2009,07,28,11,49,30.90
2009,07,28,11,50,30.90
2009,07,28,11,51,30.90
2009,07,28,11,52,30.90
2009,07,28,11,53,30.90
2009,07,28,11,54,31.00
2009,07,28,11,55,31.00
2009,07,28,11,56,31.10
2009,07,28,11,57,31.10
2009,07,28,11,58,31.20
2009,07,28,11,59,31.20
2009,07,28,12,00,31.20
2009,07,28,12,01,31.20
2009,07,28,12,02,31.20
2009,07,28,12,03,31.20
2009,07,28,12,04,31.20
2009,07,28,12,05,31.20
2009,07,28,12,06,31.30
2009,07,28,12,07,31.30
2009,07,28,12,08,31.30
2009,07,28,12,09,31.40
2009,07,28,12,10,31.40
2009,07,28,12,11,31.50
2009,07,28,12,12,31.60
2009,07,28,12,13,31.60
2009,07,28,12,14,31.70
2009,07,28,12,15,31.80
2009,07,28,12,16,31.80
2009,07,28,12,17,31.90
2009,07,28,12,18,31.90
2009,07,28,12,19,31.90
2009,07,28,12,20,32.00
2009,07,28,12,21,32.00
2009,07,28,12,22,32.10
2009,07,28,12,23,32.10
2009,07,28,12,24,32.10
2009,07,28,12,25,32.20
2009,07,28,12,26,32.20
2009,07,28,12,27,32.20
2009,07,28,12,28,32.00
2009,07,28,12,29,31.80
2009,07,28,12,30,31.80
2009,07,28,12,31,31.80
2009,07,28,12,32,31.80
2009,07,28,12,33,31.80
2009,07,28,12,34,31.70
2009,07,28,12,35,31.70
2009,07,28,12,36,31.70
2009,07,28,12,37,31.70
2009,07,28,12,38,31.70
2009,07,28,12,39,31.60
2009,07,28,12,40,31.70
2009,07,28,12,41,31.70
2009,07,28,12,42,31.70
2009,07,28,12,43,31.70
2009,07,28,12,44,31.80
2009,07,28,12,45,31.80
2009,07,28,12,46,31.80
2009,07,28,12,47,31.80
2009,07,28,12,48,31.80
2009,07,28,12,49,31.70
2009,07,28,12,50,31.70
2009,07,28,12,51,31.70
2009,07,28,12,52,31.70
2009,07,28,12,53,31.70
2009,07,28,12,54,31.70
2009,07,28,12,55,31.60
2009,07,28,12,56,31.60
2009,07,28,12,57,31.70
2009,07,28,12,58,31.80
2009,07,28,12,59,31.80
2009,07,28,13,00,31.80
2009,07,28,13,01,31.90
2009,07,28,13,02,31.80
2009,07,28,13,03,31.80
2009,07,28,13,04,31.80
2009,07,28,13,05,31.80
2009,07,28,13,06,31.80
2009,07,28,13,07,31.80
2009,07,28,13,08,31.80
2009,07,28,13,09,31.80
2009,07,28,13,10,31.80
2009,07,28,13,11,31.80
2009,07,28,13,12,31.90
2009,07,28,13,13,31.90
2009,07,28,13,14,31.90
2009,07,28,13,15,31.90
2009,07,28,13,16,31.80
2009,07,28,13,17,31.80
2009,07,28,13,18,31.80
2009,07,28,13,19,31.70
2009,07,28,13,20,31.70
2009,07,28,13,21,31.60
2009,07,28,13,22,31.60
2009,07,28,13,23,31.60
2009,07,28,13,24,31.70
2009,07,28,13,25,31.70
2009,07,28,13,26,31.80
2009,07,28,13,27,31.80
2009,07,28,13,28,31.70
2009,07,28,13,29,31.60
2009,07,28,13,30,31.50
2009,07,28,13,31,31.30
2009,07,28,13,32,31.20
2009,07,28,13,33,31.10
2009,07,28,13,34,30.90
2009,07,28,13,35,30.80
2009,07,28,13,36,30.60
2009,07,28,13,37,30.50
2009,07,28,13,38,30.40
2009,07,28,13,39,30.30
2009,07,28,13,40,30.20
2009,07,28,13,41,30.20
2009,07,28,13,42,30.20
2009,07,28,13,43,30.20
2009,07,28,13,44,30.30
2009,07,28,13,45,30.30
2009,07,28,13,46,30.30
2009,07,28,13,47,30.30
2009,07,28,13,48,30.20
2009,07,28,13,49,30.20
2009,07,28,13,50,30.20
2009,07,28,13,51,30.30
2009,07,28,13,52,30.30
2009,07,28,13,53,30.40
2009,07,28,13,54,30.30
2009,07,28,13,55,30.30
2009,07,28,13,56,30.20
2009,07,28,13,57,30.10
2009,07,28,13,58,30.20
2009,07,28,13,59,30.10
2009,07,28,14,00,30.10
2009,07,28,14,01,30.20
2009,07,28,14,02,30.20
2009,07,28,14,03,30.30
2009,07,28,14,04,30.20
2009,07,28,14,05,30.10
2009,07,28,14,06,30.10
2009,07,28,14,07,30.00
2009,07,28,14,08,29.90
2009,07,28,14,09,29.70
2009,07,28,14,10,29.70
2009,07,28,14,11,29.60
2009,07,28,14,12,29.60
2009,07,28,14,13,29.50
2009,07,28,14,14,29.40
2009,07,28,14,15,29.40
2009,07,28,14,16,29.50
2009,07,28,14,17,29.60
2009,07,28,14,18,29.70
2009,07,28,14,19,29.80
2009,07,28,14,20,29.80
2009,07,28,14,21,29.80
2009,07,28,14,22,29.80
2009,07,28,14,23,29.90
2009,07,28,14,24,30.00
2009,07,28,14,25,30.10
2009,07,28,14,26,30.20
2009,07,28,14,27,30.20
2009,07,28,14,28,30.20
2009,07,28,14,29,30.30
2009,07,28,14,30,30.30
2009,07,28,14,31,30.40
2009,07,28,14,32,30.50
2009,07,28,14,33,30.60
2009,07,28,14,34,30.70
2009,07,28,14,35,30.80
2009,07,28,14,36,30.80
2009,07,28,14,37,30.80
2009,07,28,14,38,30.80
2009,07,28,14,39,30.80
2009,07,28,14,40,30.80
2009,07,28,14,41,30.90
2009,07,28,14,42,31.00
2009,07,28,14,43,31.10
2009,07,28,14,44,31.30
2009,07,28,14,45,31.40
2009,07,28,14,46,31.40
2009,07,28,14,47,31.50
2009,07,28,14,48,31.50
2009,07,28,14,49,31.50
2009,07,28,14,50,31.60
2009,07,28,14,51,31.50
2009,07,28,14,52,31.40
2009,07,28,14,53,31.30
2009,07,28,14,54,31.30
2009,07,28,14,55,31.30
2009,07,28,14,56,31.30
2009,07,28,14,57,31.30
2009,07,28,14,58,31.30
2009,07,28,14,59,31.40
2009,07,28,15,00,31.40
2009,07,28,15,01,31.40
2009,07,28,15,02,31.40
2009,07,28,15,03,31.40
2009,07,28,15,04,31.40
2009,07,28,15,05,31.40
2009,07,28,15,06,31.30
2009,07,28,15,07,31.30
2009,07,28,15,08,31.20
2009,07,28,15,09,31.20
2009,07,28,15,10,31.20
2009,07,28,15,11,31.20
2009,07,28,15,12,31.20
2009,07,28,15,13,31.20
2009,07,28,15,14,31.20
2009,07,28,15,15,31.20
2009,07,28,15,16,31.20
2009,07,28,15,17,31.20
2009,07,28,15,18,31.30
2009,07,28,15,19,31.30
2009,07,28,15,20,31.30
2009,07,28,15,21,31.40
2009,07,28,15,22,31.40
2009,07,28,15,23,31.40
2009,07,28,15,24,31.40
2009,07,28,15,25,31.30
2009,07,28,15,26,31.20
2009,07,28,15,27,31.00
2009,07,28,15,28,30.80
2009,07,28,15,29,30.80
2009,07,28,15,30,30.80
2009,07,28,15,31,31.00
2009,07,28,15,32,31.10
2009,07,28,15,33,31.20
2009,07,28,15,34,31.30
2009,07,28,15,35,31.30
2009,07,28,15,36,31.30
2009,07,28,15,37,31.30
2009,07,28,15,38,31.30
2009,07,28,15,39,31.30
2009,07,28,15,40,31.30
2009,07,28,15,41,31.30
2009,07,28,15,42,31.30
2009,07,28,15,43,31.20
2009,07,28,15,44,31.10
2009,07,28,15,45,30.90
2009,07,28,15,46,30.80
2009,07,28,15,47,30.60
2009,07,28,15,48,30.60
2009,07,28,15,49,30.60
2009,07,28,15,50,30.60
2009,07,28,15,51,30.60
2009,07,28,15,52,30.60
2009,07,28,15,53,30.60
2009,07,28,15,54,30.60
2009,07,28,15,55,30.50
2009,07,28,15,56,30.40
2009,07,28,15,57,30.40
2009,07,28,15,58,30.20
2009,07,28,15,59,30.10
2009,07,28,16,00,30.00
2009,07,28,16,01,29.90
2009,07,28,16,02,29.90
2009,07,28,16,03,29.80
2009,07,28,16,04,29.80
2009,07,28,16,05,29.80
2009,07,28,16,06,29.90
2009,07,28,16,07,29.90
2009,07,28,16,08,29.90
2009,07,28,16,09,29.90
2009,07,28,16,10,29.90
2009,07,28,16,11,29.90
2009,07,28,16,12,29.90
2009,07,28,16,13,30.00
2009,07,28,16,14,30.00
2009,07,28,16,15,30.10
2009,07,28,16,16,30.20
2009,07,28,16,17,30.20
2009,07,28,16,18,30.30
2009,07,28,16,19,30.30
2009,07,28,16,20,30.40
2009,07,28,16,21,30.50
2009,07,28,16,22,30.60
2009,07,28,16,23,30.60
2009,07,28,16,24,30.60
2009,07,28,16,25,30.70
2009,07,28,16,26,30.70
2009,07,28,16,27,30.70
2009,07,28,16,28,30.70
2009,07,28,16,29,30.70
2009,07,28,16,30,30.80
2009,07,28,16,31,30.90
2009,07,28,16,32,31.10
2009,07,28,16,33,31.20
2009,07,28,16,34,31.30
2009,07,28,16,35,31.30
2009,07,28,16,36,31.40
2009,07,28,16,37,31.50
2009,07,28,16,38,31.50
2009,07,28,16,39,31.60
2009,07,28,16,40,31.70
2009,07,28,16,41,31.70
2009,07,28,16,42,31.80
2009,07,28,16,43,31.80
2009,07,28,16,44,31.90
2009,07,28,16,45,31.90
2009,07,28,16,46,31.90
2009,07,28,16,47,31.90
2009,07,28,16,48,32.00
2009,07,28,16,49,32.10
2009,07,28,16,50,32.10
2009,07,28,16,51,32.10
2009,07,28,16,52,32.10
2009,07,28,16,53,32.10
2009,07,28,16,54,32.00
2009,07,28,16,55,32.00
2009,07,28,16,56,32.00
2009,07,28,16,57,32.00
2009,07,28,16,58,32.10
2009,07,28,16,59,32.20
2009,07,28,17,00,32.20
2009,07,28,17,01,32.20
2009,07,28,17,02,32.20
2009,07,28,17,03,32.20
2009,07,28,17,04,32.20
2009,07,28,17,05,32.20
2009,07,28,17,06,32.20
2009,07,28,17,07,32.20
2009,07,28,17,08,32.20
2009,07,28,17,09,32.20
2009,07,28,17,10,32.20
2009,07,28,17,11,32.30
2009,07,28,17,12,32.30
2009,07,28,17,13,32.40
2009,07,28,17,14,32.40
2009,07,28,17,15,32.40
2009,07,28,17,16,32.40
2009,07,28,17,17,32.30
2009,07,28,17,18,32.30
2009,07,28,17,19,32.20
2009,07,28,17,20,32.20
2009,07,28,17,21,32.10
2009,07,28,17,22,32.10
2009,07,28,17,23,32.10
2009,07,28,17,24,32.10
2009,07,28,17,25,32.10
2009,07,28,17,26,32.10
2009,07,28,17,27,32.10
2009,07,28,17,28,32.10
2009,07,28,17,29,32.10
2009,07,28,17,30,32.10
2009,07,28,17,31,32.10
2009,07,28,17,32,32.10
2009,07,28,17,33,32.20
2009,07,28,17,34,32.30
2009,07,28,17,35,32.30
2009,07,28,17,36,32.40
2009,07,28,17,37,32.40
2009,07,28,17,38,32.50
2009,07,28,17,39,32.60
2009,07,28,17,40,32.60
2009,07,28,17,41,32.60
2009,07,28,17,42,32.60
2009,07,28,17,43,32.70
2009,07,28,17,44,32.70
2009,07,28,17,45,32.70
2009,07,28,17,46,32.70
2009,07,28,17,47,32.70
2009,07,28,17,48,32.70
2009,07,28,17,49,32.80